Overview Statistics Trail Chart Weather Telemetry Raw packets
 

This is the latest recevied weather packets stored in our database for station/object F5IOR. If no packets are shown the sender has not sent any weather packets the latest 10 day(s).

<< 1 2 3 4 5 >>
Time Temp. Humidity Pressure Rain* Wind** Luminosity Snow
1788539778 32.22° C 29% 989.8 hPa 0 mm - - -
1788537966 32.78° C 29% 989.7 hPa 0 mm - - -
1788536166 32.78° C 31% 989.8 hPa 0 mm - - -
1788534366 32.78° C 32% 990 hPa 0 mm - - -
1788532566 32.78° C 30% 990.1 hPa 0 mm - - -
1788530766 32.78° C 29% 990.3 hPa 0 mm - - -
1788528966 32.22° C 33% 990.8 hPa 0 mm - - -
1788527166 32.22° C 33% 991 hPa 0 mm - - -
1788525367 31.67° C 34% 991.2 hPa 0 mm - - -
1788523566 31.11° C 36% 991.4 hPa 0 mm - - -
1788521766 30.56° C 38% 991.7 hPa 0 mm - - -
1788519966 29.44° C 40% 992 hPa 0 mm - - -
1788518166 27.78° C 42% 992.5 hPa 0 mm - - -
1788516385 26.67° C 44% 992.7 hPa 0 mm - - -
1788514566 25° C 48% 993.1 hPa 0 mm - - -
1788513606 23.89° C 50% 993.1 hPa 0 mm - - -
1788512646 23.33° C 52% 993.1 hPa 0 mm - - -
1788511686 22.22° C 54% 993 hPa 0 mm - - -
1788510726 20.56° C 59% 992.7 hPa 0 mm - - -
1788510246 20.56° C 59% 992.7 hPa 0 mm - - -
1788509766 20.56° C 59% 992.7 hPa 0 mm - - -
1788509286 19.44° C 63% 992.6 hPa 0 mm - - -
1788508806 19.44° C 63% 992.6 hPa 0 mm - - -
1788508566 18.89° C 67% 992.5 hPa 0 mm - - -
1788508326 18.89° C 67% 992.5 hPa 0 mm - - -

* Rain latest hour (hover to see other rain measurements)
** Current wind speed in m/s (hover to see current wind gust speed)